Location: Newark
(46.7000°N, 66.1167°W)
Time: 04:48:07
(UTC+00:00)

N. Korean satellite - Visible Passes

Search period start: 18 October 2019 00:00
Search period end: 28 October 2019 00:00
Orbit: 455 x 508 km, 97.2° (Epoch: 16 October)

Date Brightness Start Highest point End Pass type
(mag) Time Alt. Az. Time Alt. Az. Time Alt. Az.
18 Oct 10.2 22:35:33 10° WSW 22:37:18 13° W 22:39:04 10° WNW visible
19 Oct 8.4 09:57:01 10° NNE 10:00:23 37° E 10:03:48 10° SSE visible
19 Oct 9.2 22:08:54 10° SSW 22:11:49 26° W 22:14:46 10° NW visible
20 Oct 9.7 09:32:17 10° NE 09:34:58 19° E 09:37:39 10° SE visible
21 Oct 10.6 09:09:09 10° E 09:09:26 10° E 09:09:44 10° E visible
22 Oct 7.3 10:14:19 10° NNE 10:17:55 62° E 10:21:34 10° S visible
22 Oct 9.9 22:27:09 10° SW 22:29:24 16° W 22:31:40 10° NW visible
23 Oct 8.8 09:49:17 10° NNE 09:52:33 30° E 09:55:50 10° SSE visible
23 Oct 8.7 22:00:49 10° SSW 22:03:55 32° W 22:07:05 10° NNW visible
24 Oct 10.0 09:24:43 10° NE 09:27:05 16° E 09:29:27 10° SE visible
25 Oct 10.5 22:46:25 10° W 22:47:00 10° W 22:47:36 10° WNW visible
26 Oct 7.7 10:06:29 10° NNE 10:10:04 49° E 10:13:40 10° S visible
26 Oct 9.6 22:18:50 10° SW 22:21:27 20° W 22:24:07 10° NW visible
27 Oct 9.2 09:41:33 10° NE 09:44:39 25° E 09:47:46 10° SSE visible
27 Oct 8.1 21:52:43 10° S 21:55:59 40° W 21:59:19 10° NNW visible
